AirNav   Pilot Hours Calculator
 
 925 users online  

GA81 Big Dog - Cameron Field Airport
Ft Valley, Georgia, USA

GOING TO FT VALLEY?


FAA INFORMATION EFFECTIVE 25 MARCH 2021

Location

FAA Identifier: GA81
Lat/Long: 32-32-52.0000N 083-49-37.0000W
32-32.866667N 083-49.616667W
32.5477778,-83.8269444
(estimated)
Elevation: 380 ft. / 116 m (estimated)
From city: 3 miles E of FT VALLEY, GA
Time zone: UTC -4 (UTC -5 during Standard Time)
Zip code: 31030

Airport Operations

Airport use: Private use. Permission required prior to landing
Activation date: 01/2003
Control tower: no
ARTCC: ATLANTA CENTER
FSS: MACON FLIGHT SERVICE STATION
Attendance: UNATNDD
Wind indicator: yes
Segmented circle: no

Airport Communications

CTAF: 122.9
WX AWOS-3 at PXE (4 nm SE): 123.825 (478-987-8768)
WX ASOS at MCN (13 nm NE): 120.775 (478-784-8825)

Nearby radio navigation aids

VOR radial/distance  VOR name  Freq  Var
MCNr226/12.5MACON VORTAC114.2001E
VNAr319/26.1VIENNA VORTAC116.5001E

 
NDB name  Hdg/Dist  Freq  Var  ID
MONTEZUMA044/14.242604WIZS .. --.. ...
LINDBERGH036/26.524204WLKG .-.. -.- --.
CONEY009/33.040006WOHY --- .... -.--

Airport Services

Runway Information

Runway 18/36

Dimensions: 3000 x 100 ft. / 914 x 30 m
Surface: turf
RUNWAY 18  RUNWAY 36
Traffic pattern: rightleft
Obstructions: 75 ft. pline, 1000 ft. from runway50 ft. pline, 3000 ft. from runway

Airport Ownership and Management from official FAA records

Ownership: Privately-owned
Owner: DAVID MURPHY
1651 BUCKEYE ROAD
FORT VALLEY, GA 31030
Phone 478-954-0225
Manager: DAVID MURPHY
1651 BUCKEYE ROAD
FORT VALLEY, GA 31030
Phone 478-954-0225

Airport Operational Statistics

Aircraft based on the field: 4
Single engine airplanes: 4
    

Additional Remarks

A113 WIND SOCK LCTD ON TOP OF MAIN HNGR.
LAND BETWEEN YELLOW CONES
LAND BETWEEN YELLOW CONES.
FOR CD CTC ATLANTA APCH AT 678-364-6132, WHEN APCH CLSD CTC ATLANTA ARTCC AT 770-210-7692.

Instrument Procedures

There are no published instrument procedures at GA81.

Some nearby airports with instrument procedures:

KPXE - Perry-Houston County Airport (4 nm SE)
KMCN - Middle Georgia Regional Airport (13 nm NE)
KWRB - Robins Air Force Base (13 nm NE)
53A - Dr. C P Savage Sr. Airport (17 nm SW)
KMAC - Macon Downtown Airport (21 nm NE)
 
Loc | Ops | Rwys | IFR | FBO | Links
Com | Nav | Svcs | Stats | Notes
Area around GA81 (Big Dog - Cameron Field Airport)
 
Road maps at: MapQuest Bing Google
 
Aerial photo
No photo
 
Sectional chart

 
Airport distance calculator
Flying to Big Dog - Cameron Field Airport? Find the distance to fly.

From to GA81

Sunrise and sunset
Times for 10-Apr-2021
 Local
(UTC-4)
 Zulu
(UTC)
Morning civil twilight06:4810:48
Sunrise07:1311:13
Sunset20:0000:00
Evening civil twilight20:2500:25

Current date and time
Zulu (UTC)  10-Apr-2021 21:54:03
Local (UTC-4)  10-Apr-2021 17:54:03
 
METAR
KPXE 
4nm SE 
102135Z AUTO 23012G17KT 10SM BKN022 BKN026 20/16 A2971 RMK AO2 T02030164
KMCN 
12nm NE 
102131Z 22008G15KT 10SM SCT023 BKN032 22/17 A2969 RMK AO2 T02170167
KWRB 
13nm E 
102056Z 22010KT 10SM SCT018 SCT024 OVC100 22/18 A2968 RMK SLP051 60004 T02160178 57009 $
TAF
KMCN 
12nm NE 
101730Z 1018/1118 19013G22KT 6SM BR VCSH OVC035 FM102300 22008KT P6SM BKN027 FM110600 21005KT P6SM BKN009 FM111200 24005KT P6SM BKN011 FM111700 25008KT P6SM SCT070
KWRB 
13nm E 
101600Z 1016/1122 18010G15KT 9999 BKN012 OVC040 QNH2980INS BECMG 1016/1017 18015G20KT 6000 RA BKN015 OVC120 QNH2975INS TEMPO 1018/1020 18020G30KT 3200 TSRA BKN025CB BKN040 OVC200 BECMG 1020/1021 27010G15KT 9999 NSW SCT025 SCT250 QNH2974INS BECMG 1022/1023 VRB06KT 9999 SCT025 QNH2973INS BECMG 1106/1107 VRB06KT 0800 FG BKN002 QNH2969INS BECMG 1112/1113 30009KT 9999 VCSH BKN010 OVC015 QNH2968INS BECMG 1113/1114 30009KT 9999 NSW SCT010 SCT015 BKN040 QNH2969INS BECMG 1115/1116 29012G18KT 9999 SCT040
NOTAMs
Click for the latest NOTAMs
NOTAMs are issued by the DoD/FAA and will open in a separate window not controlled by AirNav.

 

 
 

Would you like to see your business listed on this page?

 If your business provides an interesting product or service to pilots, flight crews, aircraft, or users of the Big Dog - Cameron Field Airport, you should consider listing it here.  To start the listing process, click on the button below
 
Add a business
 

Other Pages about Big Dog - Cameron Field Airport

Update a link
 
Copyright © AirNav, LLC. All rights reserved. Privacy Policy  Contact